Wind_Speed
5 7 9 9 8 8 8 8 9 9 9 9 8 7 6 5 4 3 3 2 2 3 4 4 5 6 6 6 6 5 5 4 3 4 4 4 4 4 4 4 4 4 4
6 8 9 10 10 9 9 9 9 10 10 9 9 7 7 6 5 4 2 1 1 1 2 3 3 4 5 5 5 4 4 3 3 3 3 3 3 3 3 3 3 4 4
7 8 9 10 10 10 10 10 10 11 10 10 10 9 8 7 6 5 4 3 2 1 1 2 3 3 4 4 4 3 3 3 2 2 2 2 2 2 2 2 2 2 3
7 8 9 9 10 11 11 12 12 12 12 11 11 10 10 9 8 7 6 5 4 4 3 3 4 4 4 4 4 3 3 2 2 2 2 2 2 2 1 1 1 1 2
8 8 9 9 10 11 12 12 13 13 13 13 12 12 11 10 10 9 8 7 6 6 5 5 6 5 5 5 5 4 4 3 3 3 3 2 2 2 1 1 1 1 1
9 8 8 9 10 11 12 12 13 14 14 14 14 13 13 13 12 11 11 10 9 8 8 8 8 8 7 6 6 5 5 4 4 4 4 3 3 3 3 2 2 1 1
9 9 9 10 10 11 12 13 14 14 15 14 14 15 14 14 14 13 13 12 11 11 10 10 10 10 9 8 7 7 6 6 5 5 5 5 5 5 5 4 3 3 2
9 10 10 10 11 12 13 15 15 15 16 16 16 16 16 16 15 15 14 14 14 13 13 12 12 12 11 10 9 8 8 7 7 7 7 7 6 6 6 6 5 4 4
11 10 11 11 12 13 14 15 16 16 17 18 18 18 18 18 17 17 16 16 16 16 15 15 14 14 13 12 11 11 10 9 9 9 9 9 8 8 8 8 7 6 5
13 12 12 12 13 14 15 16 17 18 18 18 19 20 20 20 20 19 19 18 17 17 17 17 16 15 15 14 14 13 12 11 11 10 10 10 10 10 9 9 8 8 7
14 13 14 14 14 14 15 16 18 19 20 20 20 20 20 21 21 21 20 19 19 19 18 18 17 17 17 17 16 15 14 14 13 13 12 12 12 12 12 11 10 9 9
16 16 15 15 15 16 16 17 18 18 19 20 20 21 22 22 21 22 21 21 21 20 20 19 19 19 19 18 18 18 17 17 16 15 15 14 14 14 14 13 12 12 11
18 17 17 17 17 17 18 19 19 19 20 20 20 21 22 22 22 22 22 22 22 22 22 21 21 21 20 20 20 20 20 19 19 18 17 17 16 16 16 15 15 14 13
21 20 19 19 19 20 20 20 20 20 21 21 22 22 23 24 24 23 23 23 23 23 23 23 22 22 22 22 22 22 22 22 22 21 20 19 19 18 18 18 17 16 16
22 22 22 22 22 22 22 22 22 22 22 23 22 23 24 25 25 25 25 25 25 24 25 24 23 24 24 23 24 24 24 24 24 23 22 21 21 20 20 20 19 19 18
24 24 23 23 23 23 23 24 24 23 23 23 24 24 25 26 26 27 26 26 26 25 25 25 24 24 24 24 25 25 25 25 25 24 24 23 22 22 22 22 21 21 20
25 24 24 24 24 24 24 25 25 25 25 25 25 26 26 26 26 28 27 27 27 27 26 26 26 26 25 25 26 26 27 26 25 24 24 23 24 23 23 23 23 23 23
26 25 25 25 25 25 25 25 25 26 26 26 26 26 26 26 27 28 29 28 29 29 28 28 27 27 26 26 26 26 26 26 26 25 24 25 25 24 24 25 25 24 25
26 26 26 26 26 26 26 25 25 26 26 26 25 25 26 27 27 28 28 28 29 30 29 29 28 27 27 27 26 25 26 27 27 26 25 25 25 25 26 26 26 25 26
26 26 26 26 26 26 26 26 26 26 27 26 25 25 26 26 26 26 26 27 29 29 29 29 29 29 28 28 27 26 26 27 28 28 26 26 27 27 27 27 28 27 27
25 26 26 25 26 26 26 26 26 27 27 27 26 25 26 26 26 27 28 27 26 26 27 29 30 29 28 28 28 27 27 27 29 29 29 29 29 29 29 29 29 29 29
25 26 26 26 25 25 25 26 26 26 27 26 26 25 25 25 25 25 27 27 26 25 26 27 29 30 30 30 28 28 28 29 29 30 31 30 30 31 31 31 31 31 32
25 25 26 25 25 25 25 25 25 26 26 26 26 26 25 25 25 24 25 25 26 26 26 26 27 29 30 30 29 30 30 30 30 30 31 32 32 32 33 32 32 33 34
24 25 25 25 25 25 25 24 25 25 25 26 26 26 26 26 26 26 26 25 25 26 26 27 26 27 28 28 29 29 30 31 31 31 32 33 33 33 34 35 35 35 36
24 25 25 25 25 25 25 25 25 25 25 25 25 25 25 26 26 26 26 26 26 26 26 27 27 27 27 28 29 30 32 32 32 33 34 34 34 34 34 35 36 36 37
23 24 25 25 25 25 25 25 25 25 25 25 26 25 25 25 26 26 26 27 27 27 27 27 28 29 28 28 28 29 31 31 32 33 34 34 35 34 34 34 34 36 36
Wind_Direction
191 186 185 186 192 199 205 211 213 213 212 209 201 190 181 175 168 157 136 106 78 59 45 38 26 20 17 17 18 15 14 20 31 30 27 33 40 44 42 38 38 36 33
200 192 190 192 195 201 207 214 219 219 217 215 212 207 200 196 192 191 190 177 121 56 25 19 9 5 3 6 8 8 8 13 18 21 21 31 36 39 38 36 39 34 31
211 199 198 200 201 205 212 218 221 225 224 222 220 219 216 213 210 211 217 223 234 257 307 333 334 337 342 346 350 349 350 356 354 357 6 14 15 23 29 29 36 33 27
219 208 206 209 211 213 217 222 224 227 230 230 228 227 225 224 223 225 229 233 243 256 272 287 299 307 315 322 325 324 321 325 319 319 336 341 339 350 1 7 23 20 18
223 220 219 220 221 222 222 225 228 230 232 234 234 233 232 232 232 234 237 241 248 256 264 273 281 286 292 299 302 302 298 296 291 287 300 303 297 297 290 277 287 334 351
238 233 229 229 229 227 226 229 232 235 236 237 238 238 237 238 239 240 241 244 250 256 261 265 272 274 274 280 284 283 281 278 277 273 277 276 270 267 261 254 249 254 264
252 247 241 238 238 235 233 235 237 239 240 241 241 241 240 240 242 243 245 246 250 253 257 260 264 267 267 269 272 271 267 267 269 268 265 264 261 255 251 247 243 241 243
264 258 250 248 246 245 245 244 243 243 243 243 244 243 243 243 244 245 247 249 252 254 255 257 260 262 263 263 264 264 260 260 260 261 260 258 253 250 247 244 241 240 241
269 267 260 255 253 252 252 249 249 248 248 246 245 245 245 245 246 247 248 252 255 255 256 258 258 259 261 260 259 259 257 256 256 256 256 254 251 249 246 243 240 241 241
272 272 268 261 258 258 257 255 254 252 252 249 247 246 247 248 249 250 251 253 256 256 257 256 256 258 259 258 257 257 255 253 253 253 253 251 250 249 245 244 242 240 240
270 272 270 265 262 259 256 255 256 258 254 251 251 249 250 251 252 253 254 254 254 256 257 257 256 257 259 259 257 256 254 252 252 251 252 251 249 248 246 244 242 242 244
270 271 271 269 267 263 262 259 258 260 256 254 254 255 253 253 254 254 256 256 256 257 257 256 256 256 257 259 258 255 254 253 252 250 249 249 249 249 248 246 245 246 247
270 270 270 270 270 268 267 266 263 257 256 256 258 257 254 253 253 255 258 259 259 258 257 257 256 255 256 259 259 257 253 252 252 251 249 249 249 249 248 248 248 248 248
269 271 272 271 270 269 269 268 266 262 258 257 257 255 253 253 254 256 259 259 258 258 258 259 259 257 257 258 260 259 255 252 252 252 250 250 251 249 248 248 249 250 251
269 270 272 271 268 269 270 269 266 265 262 260 258 257 257 257 256 258 259 259 261 259 258 259 260 259 260 261 261 261 258 254 253 253 252 252 251 249 249 250 250 252 253
274 275 276 273 271 270 270 269 268 266 264 262 260 259 260 259 258 259 260 262 261 260 258 259 260 260 260 262 262 260 259 256 254 254 254 253 251 251 250 251 251 253 254
275 276 275 274 272 270 270 270 271 267 268 263 262 260 261 261 260 260 260 261 261 260 259 259 260 262 262 262 262 260 257 255 255 254 254 251 251 251 251 251 252 253 254
274 275 274 273 272 272 271 272 273 270 269 267 266 262 261 261 261 260 259 260 259 259 259 259 260 260 261 261 261 260 257 253 254 252 251 250 249 251 253 253 254 255 254
273 274 273 273 273 272 271 270 271 271 271 271 269 266 264 263 262 259 257 258 259 258 257 256 257 259 260 260 258 257 255 254 253 251 249 249 249 251 252 254 255 255 254
272 273 273 272 272 271 270 268 268 269 268 269 270 269 267 267 264 259 258 261 260 258 256 255 257 258 258 259 258 255 254 253 252 252 250 249 249 251 251 254 254 254 254
271 271 271 271 270 269 269 268 268 267 266 265 267 267 265 265 263 261 262 264 261 258 255 254 254 253 255 257 258 255 254 253 252 252 251 247 247 250 250 252 252 253 253
270 270 270 270 269 269 268 268 268 267 266 264 264 265 267 265 264 264 263 262 258 258 256 253 251 251 254 256 256 256 255 253 253 252 251 248 247 249 249 250 251 252 254
270 269 270 270 269 268 268 268 268 266 266 264 263 264 265 265 264 263 263 260 258 256 255 254 250 250 252 253 255 255 256 255 253 251 249 249 248 250 249 249 251 253 255
271 271 271 270 269 268 267 267 267 264 264 264 262 262 263 263 261 260 262 260 258 256 254 253 253 253 251 252 254 255 255 253 252 251 252 251 251 251 250 251 251 253 256
273 271 270 268 268 267 267 267 266 264 264 263 263 261 261 261 260 259 260 259 257 255 254 254 253 254 253 254 254 255 253 254 254 254 254 252 253 252 253 255 256 257 258
275 272 268 268 268 268 266 265 265 264 263 262 262 261 260 260 259 259 257 256 256 255 256 254 253 253 254 255 255 254 254 256 254 253 251 250 252 254 253 254 258 258 260
Height
5906 5906 5906 5907 5907 5908 5909 5910 5911 5912 5912 5912 5912 5912 5913 5913 5913 5913 5914 5914 5914 5914 5914 5914 5914 5914 5913 5913 5912 5912 5912 5911 5911 5910 5910 5909 5909 5909 5908 5908 5907 5907 5906
5905 5905 5905 5906 5907 5907 5908 5909 5910 5910 5911 5911 5911 5911 5911 5912 5912 5912 5913 5913 5913 5913 5913 5913 5913 5913 5913 5912 5912 5912 5911 5911 5911 5910 5910 5909 5909 5909 5908 5908 5908 5907 5907
5903 5903 5904 5905 5905 5906 5906 5907 5908 5909 5910 5910 5910 5910 5910 5910 5911 5911 5912 5912 5912 5913 5913 5913 5913 5912 5912 5912 5911 5911 5911 5910 5910 5910 5909 5909 5909 5909 5909 5908 5908 5908 5907
5901 5901 5902 5903 5904 5905 5905 5906 5906 5907 5908 5908 5909 5909 5909 5909 5910 5910 5911 5911 5911 5912 5912 5912 5912 5911 5911 5911 5910 5910 5910 5910 5910 5909 5909 5909 5909 5909 5909 5908 5908 5908 5908
5899 5899 5900 5901 5902 5903 5903 5904 5905 5905 5906 5906 5907 5907 5908 5908 5908 5909 5909 5910 5910 5910 5910 5910 5910 5910 5910 5909 5909 5909 5909 5909 5909 5908 5908 5908 5908 5908 5908 5908 5908 5908 5908
5897 5898 5898 5899 5900 5900 5901 5902 5903 5904 5904 5904 5905 5905 5906 5906 5907 5907 5908 5908 5909 5909 5909 5909 5909 5909 5908 5908 5908 5908 5908 5907 5908 5908 5908 5908 5908 5908 5908 5908 5908 5908 5907
5896 5896 5896 5897 5898 5898 5899 5900 5901 5901 5902 5902 5903 5903 5903 5904 5904 5905 5906 5906 5907 5907 5907 5907 5907 5907 5907 5906 5906 5906 5906 5906 5906 5906 5906 5907 5907 5907 5907 5907 5907 5907 5907
5893 5894 5894 5894 5895 5896 5897 5897 5898 5898 5899 5899 5900 5900 5901 5901 5902 5902 5903 5904 5904 5905 5905 5905 5905 5905 5905 5904 5904 5904 5904 5904 5905 5905 5905 5905 5906 5906 5906 5906 5906 5906 5906
5891 5891 5891 5892 5892 5893 5893 5894 5894 5895 5895 5896 5896 5897 5898 5898 5899 5900 5900 5901 5902 5902 5902 5902 5902 5902 5902 5902 5902 5902 5902 5902 5903 5903 5903 5904 5904 5904 5904 5904 5905 5905 5905
5888 5888 5888 5889 5889 5890 5890 5891 5891 5891 5892 5892 5893 5893 5894 5895 5896 5896 5897 5898 5898 5899 5899 5899 5899 5900 5900 5900 5900 5900 5900 5900 5900 5901 5901 5901 5902 5902 5903 5903 5903 5903 5903
5885 5885 5885 5885 5885 5886 5886 5887 5887 5887 5887 5888 5889 5889 5890 5891 5892 5892 5893 5894 5894 5895 5896 5896 5896 5896 5896 5897 5897 5897 5897 5897 5898 5898 5898 5899 5899 5900 5900 5901 5901 5901 5901
5881 5881 5882 5882 5882 5882 5883 5883 5883 5883 5883 5884 5884 5885 5886 5887 5887 5888 5889 5889 5890 5891 5891 5892 5892 5892 5893 5893 5893 5893 5894 5894 5894 5895 5895 5896 5897 5897 5898 5898 5898 5899 5899
5877 5877 5878 5878 5878 5879 5879 5879 5879 5879 5879 5879 5880 5880 5881 5882 5882 5883 5884 5885 5885 5886 5887 5887 5888 5888 5888 5889 5889 5890 5890 5890 5891 5891 5892 5893 5893 5894 5894 5895 5895 5896 5896
5873 5873 5874 5874 5874 5874 5874 5874 5874 5874 5874 5873 5874 5875 5875 5876 5877 5878 5879 5880 5880 5881 5882 5882 5883 5883 5884 5884 5885 5885 5886 5886 5886 5887 5888 5889 5889 5890 5891 5891 5892 5893 5893
5869 5869 5870 5870 5870 5870 5869 5869 5869 5868 5868 5869 5868 5869 5870 5871 5872 5873 5873 5874 5875 5876 5876 5877 5878 5878 5879 5879 5880 5880 5881 5881 5882 5882 5883 5884 5885 5886 5887 5887 5888 5889 5889
5865 5865 5865 5865 5865 5865 5865 5864 5863 5863 5863 5863 5863 5864 5865 5866 5866 5867 5868 5869 5869 5870 5871 5871 5872 5873 5873 5874 5875 5875 5875 5876 5877 5877 5878 5879 5880 5881 5882 5883 5884 5884 5885
5860 5860 5860 5860 5860 5860 5860 5859 5858 5858 5858 5858 5858 5859 5860 5860 5860 5861 5862 5863 5863 5864 5865 5865 5866 5867 5868 5868 5869 5870 5870 5871 5871 5872 5873 5874 5875 5876 5877 5878 5879 5880 5880
5855 5854 5855 5855 5854 5854 5854 5854 5853 5853 5853 5853 5853 5853 5854 5854 5854 5854 5855 5856 5856 5857 5858 5860 5860 5861 5862 5862 5863 5864 5864 5865 5866 5867 5868 5869 5870 5871 5872 5873 5874 5875 5875
5849 5849 5849 5849 5848 5848 5848 5848 5848 5847 5847 5847 5847 5847 5848 5848 5848 5848 5848 5849 5850 5851 5852 5853 5854 5855 5856 5856 5857 5858 5859 5860 5861 5862 5863 5864 5865 5866 5867 5868 5868 5869 5870
5843 5842 5842 5842 5842 5842 5842 5842 5842 5841 5841 5841 5841 5841 5842 5842 5842 5842 5842 5843 5843 5844 5845 5846 5847 5848 5849 5850 5851 5852 5853 5854 5855 5856 5857 5858 5859 5860 5861 5862 5863 5863 5864
5836 5836 5836 5836 5836 5835 5835 5835 5835 5835 5835 5835 5835 5835 5835 5836 5836 5836 5836 5837 5837 5838 5838 5839 5840 5841 5843 5844 5845 5846 5847 5848 5849 5850 5851 5852 5853 5854 5855 5856 5856 5857 5857
5830 5830 5829 5829 5829 5829 5829 5828 5828 5828 5828 5828 5829 5829 5829 5830 5830 5830 5830 5830 5831 5832 5832 5832 5833 5834 5836 5837 5838 5839 5840 5842 5842 5843 5845 5846 5846 5847 5848 5849 5850 5850 5851
5824 5824 5823 5822 5822 5822 5822 5822 5821 5821 5821 5822 5822 5823 5823 5823 5824 5824 5824 5824 5825 5825 5825 5825 5827 5828 5829 5831 5832 5833 5833 5835 5836 5836 5837 5839 5840 5840 5841 5842 5842 5843 5844
5817 5817 5817 5816 5816 5816 5815 5815 5815 5815 5815 5815 5815 5816 5816 5817 5817 5818 5818 5818 5818 5819 5819 5819 5821 5821 5822 5823 5825 5825 5826 5828 5829 5829 5830 5831 5832 5833 5834 5835 5835 5835 5836
5811 5810 5810 5809 5809 5809 5809 5808 5808 5808 5808 5808 5808 5809 5809 5810 5810 5811 5812 5811 5812 5812 5813 5813 5814 5815 5816 5816 5817 5818 5819 5820 5821 5822 5823 5824 5825 5825 5826 5827 5827 5827 5828
5805 5804 5803 5803 5802 5802 5802 5801 5801 5802 5802 5802 5802 5802 5802 5803 5803 5804 5804 5805 5805 5806 5806 5807 5807 5808 5809 5810 5810 5811 5812 5813 5813 5814 5815 5816 5817 5818 5819 5819 5819 5819 5819